PBO Station Position Time Series. Reference Frame : NAM14
Format Version,1.1.1
4-character ID,P508
Station name,Angus_PropCS2005
Begin Date, 2005-10-19
End Date, 2023-06-26
Release Date, 2023-06-27
Reference position, 33.2477804511 North Latitude, -115.4287052679 East Longitude, 10.68899 meters elevation,
Date, North (mm), East (mm), Vertical (mm), North Std. Deviation (mm), East Std. Deviation (mm),              Vertical Std. Deviation (mm), Quality,
2005-10-19,0.00, 0.00, 0.00, 2.10, 1.72, 8.12, repro,
2005-10-20,-0.23, -0.19, 4.96, 2.20, 1.75, 8.44, repro,
2005-10-21,0.09, 0.71, 5.02, 2.15, 1.79, 8.46, repro,
2005-10-22,0.19, 0.04, -1.62, 1.94, 1.65, 7.43, repro,
2005-10-23,2.24, 0.30, 4.85, 1.98, 1.69, 7.62, repro,
2005-10-24,-0.19, 0.22, 2.96, 2.00, 1.75, 7.81, repro,
2005-10-25,1.46, 0.94, 3.68, 1.99, 1.69, 7.62, repro,
2005-10-26,0.69, 0.29, 2.82, 2.02, 1.75, 7.86, repro,
2005-10-27,0.40, -0.48, 3.67, 1.99, 1.69, 7.61, repro,
2005-10-28,0.81, -0.21, 2.72, 1.95, 1.65, 7.44, repro,
2005-10-29,1.59, 0.96, 1.61, 1.98, 1.68, 7.62, repro,
2005-10-30,1.07, 0.19, 2.91, 1.99, 1.73, 7.77, repro,
2005-10-31,1.15, 0.18, 0.02, 2.07, 1.72, 7.92, repro,
2005-11-01,1.47, 1.28, 2.23, 2.13, 1.84, 8.26, repro,
2005-11-02,1.03, 0.31, -1.71, 2.07, 1.89, 8.08, repro,
2005-11-03,0.35, 1.08, 4.81, 1.99, 1.72, 7.60, repro,
2005-11-04,1.36, 0.56, 5.68, 2.03, 1.79, 7.79, repro,
2005-11-05,0.34, 0.58, 2.58, 2.04, 1.83, 7.96, repro,
2005-11-06,0.47, 1.03, 1.96, 2.07, 1.89, 8.10, repro,
2005-11-07,1.77, 0.28, 3.36, 2.04, 1.83, 7.97, repro,
2005-11-08,1.23, 1.96, -4.71, 2.04, 1.81, 7.84, repro,
2005-11-09,1.25, 1.52, -5.43, 2.06, 1.86, 8.04, repro,
2005-11-10,1.58, 0.33, -3.69, 2.23, 1.97, 8.85, repro,
2005-11-11,1.68, 0.48, -0.39, 2.12, 1.83, 8.20, repro,
2005-11-12,0.77, 0.86, 1.29, 1.96, 1.75, 7.65, repro,
2005-11-13,0.85, 0.98, 0.22, 2.11, 1.83, 8.17, repro,
2005-11-14,1.05, 0.35, -2.78, 2.03, 1.80, 7.86, repro,
2005-11-15,1.51, 0.28, -4.03, 1.97, 1.65, 7.50, repro,
2005-11-16,1.69, 1.38, -7.50, 1.98, 1.72, 7.64, repro,
2005-11-17,0.52, 0.22, -3.37, 1.93, 1.65, 7.46, repro,
2005-11-18,0.84, 0.24, -1.63, 1.94, 1.65, 7.44, repro,
2005-11-19,1.33, 0.68, -2.28, 1.94, 1.65, 7.45, repro,
2005-11-20,1.06, 0.40, -7.28, 1.96, 1.68, 7.53, repro,
2005-11-21,1.62, -0.21, -3.24, 2.04, 1.70, 7.87, repro,
2005-11-22,0.74, 0.57, -4.88, 1.99, 1.75, 7.77, repro,
2005-11-23,0.31, 0.53, -3.34, 1.99, 1.73, 7.70, repro,
2005-11-24,0.10, 1.30, 1.77, 1.94, 1.65, 7.49, repro,
2005-11-25,-0.51, 0.56, 0.80, 2.00, 1.69, 7.70, repro,
2005-11-26,1.43, 0.57, 6.69, 2.07, 1.80, 8.10, repro,
2005-11-27,0.31, 1.22, 1.72, 2.01, 1.72, 7.82, repro,
2005-11-28,0.45, 1.29, -0.49, 2.02, 1.74, 7.81, repro,
2005-11-29,-0.27, 0.96, 0.08, 2.01, 1.72, 7.71, repro,
2005-11-30,0.19, 0.70, -3.81, 1.99, 1.68, 7.64, repro,
2005-12-01,0.66, 0.43, -4.62, 1.98, 1.69, 7.67, repro,
2005-12-02,-0.22, 0.59, -1.86, 1.97, 1.68, 7.58, repro,
2005-12-03,-0.27, -0.13, 0.49, 1.96, 1.68, 7.58, repro,
2005-12-04,0.49, 1.11, -8.25, 1.96, 1.66, 7.47, repro,
2005-12-05,-0.24, 0.44, -10.12, 1.98, 1.68, 7.55, repro,
2005-12-06,0.26, 1.02, -5.14, 2.07, 1.76, 7.97, repro,
2005-12-07,-0.17, 0.36, -2.96, 2.01, 1.73, 7.82, repro,
2005-12-08,-0.48, 0.41, -1.14, 1.99, 1.71, 7.68, repro,
2005-12-09,1.34, 1.72, -7.04, 1.96, 1.68, 7.59, repro,
2005-12-10,0.46, 1.07, -3.11, 1.96, 1.69, 7.54, repro,
2005-12-11,0.35, 1.36, -1.67, 1.97, 1.70, 7.63, repro,
2005-12-12,0.49, 0.89, -0.70, 2.00, 1.70, 7.73, repro,
2005-12-13,0.13, 0.63, -0.97, 1.95, 1.64, 7.46, repro,
2005-12-14,0.49, 0.69, -4.07, 1.98, 1.72, 7.74, repro,
2005-12-15,0.04, 0.90, -1.26, 2.00, 1.71, 7.67, repro,
2005-12-16,0.20, 0.46, -0.97, 1.96, 1.68, 7.54, repro,
2005-12-17,0.78, -0.21, -2.82, 2.04, 1.76, 7.91, repro,
2005-12-18,1.44, -0.30, -3.76, 2.07, 1.81, 7.99, repro,
2005-12-19,1.87, 0.23, -10.10, 2.13, 1.83, 8.14, repro,
2005-12-20,1.13, 0.15, -6.27, 1.97, 1.78, 7.70, repro,
2005-12-21,1.24, -0.41, -3.74, 2.05, 1.82, 7.93, repro,
2005-12-22,1.07, 0.36, 2.09, 2.02, 1.85, 7.82, repro,
2005-12-23,1.20, -0.34, 4.55, 2.09, 1.81, 7.94, repro,
2005-12-24,0.83, -0.67, -0.70, 2.20, 1.88, 8.33, repro,
2005-12-25,0.11, 0.05, -1.51, 2.10, 1.81, 8.10, repro,
2005-12-26,-0.01, 0.84, 1.00, 2.02, 1.73, 7.68, repro,
2005-12-27,0.35, -1.27, -0.31, 2.11, 1.83, 8.10, repro,
2005-12-28,0.31, 0.76, -1.13, 2.02, 1.73, 7.69, repro,
2005-12-29,-0.47, -1.03, 3.25, 2.34, 2.06, 9.19, repro,
2005-12-30,0.25, -0.83, 7.84, 2.26, 1.99, 8.83, repro,
2005-12-31,0.58, 0.04, 9.96, 2.33, 2.04, 9.05, repro,
2006-01-01,-2.16, -1.08, 3.52, 2.09, 1.78, 7.99, repro,
2006-01-02,0.27, 0.28, 5.86, 2.03, 1.76, 7.83, repro,
2006-01-03,1.05, -3.52, -6.26, 2.19, 1.94, 8.55, repro,
2006-01-04,1.21, -0.66, -5.24, 2.20, 1.95, 8.53, repro,
2006-01-05,0.34, 0.93, -3.04, 2.05, 1.78, 7.80, repro,
2006-01-06,0.35, 0.02, -2.05, 2.16, 1.84, 8.20, repro,
2006-01-07,0.58, 0.98, 7.01, 2.01, 1.72, 7.63, repro,
2006-01-08,-0.16, 0.26, 8.44, 2.12, 1.85, 7.97, repro,
2006-01-09,0.38, 0.09, 0.66, 2.15, 1.82, 8.14, repro,
2006-01-10,0.85, 0.50, 0.76, 2.18, 1.88, 8.21, repro,
2006-01-11,1.61, 0.62, 4.20, 2.14, 1.86, 8.18, repro,
2006-01-12,0.86, 0.96, 2.49, 2.06, 1.80, 7.87, repro,
2006-01-13,0.21, -0.04, 3.06, 2.27, 2.00, 8.82, repro,
2006-01-14,-0.66, 0.61, -2.88, 1.99, 1.67, 7.59, repro,
2006-01-15,-0.11, 0.49, 3.77, 1.98, 1.66, 7.52, repro,
2006-01-16,-0.50, -0.10, 4.11, 2.16, 1.88, 8.23, repro,
2006-01-17,0.44, 1.51, -2.08, 2.06, 1.76, 7.71, repro,
2006-01-18,0.97, -0.74, 0.98, 2.02, 1.74, 7.70, repro,
2006-01-19,1.85, -0.21, -3.88, 2.07, 1.75, 7.95, repro,
2006-01-20,-0.05, -0.36, -3.95, 2.03, 1.74, 7.90, repro,
2006-01-21,0.24, 0.35, 1.03, 2.00, 1.68, 7.58, repro,
2006-01-22,0.47, 0.60, -3.38, 1.96, 1.64, 7.46, repro,
2006-01-23,0.82, 0.53, 6.05, 1.96, 1.64, 7.49, repro,
2006-01-24,-0.43, -0.60, 5.03, 2.00, 1.68, 7.70, repro,
2006-01-25,-0.23, 0.29, 0.20, 1.91, 1.62, 7.34, repro,
2006-01-26,0.78, -0.27, -5.82, 1.90, 1.62, 7.32, repro,
2006-01-27,0.36, 0.93, -2.54, 1.90, 1.62, 7.32, repro,
2006-01-28,0.51, 0.62, -3.91, 1.89, 1.61, 7.29, repro,
2006-01-29,-0.02, 0.48, -0.86, 1.90, 1.61, 7.32, repro,
2006-01-30,0.23, 0.63, -1.94, 1.91, 1.62, 7.35, repro,
2006-01-31,0.76, -0.46, 12.72, 1.92, 1.62, 7.38, repro,
2006-02-01,1.11, 0.62, 3.95, 1.96, 1.66, 7.53, repro,
2006-02-02,1.50, 0.26, 6.40, 1.90, 1.61, 7.34, repro,
2006-02-03,0.28, -0.24, 3.28, 1.91, 1.61, 7.35, repro,
2006-02-04,0.51, -0.75, 2.20, 1.93, 1.61, 7.39, repro,
2006-02-05,0.01, -0.03, 0.06, 1.94, 1.62, 7.47, repro,
2006-02-06,0.57, 0.25, -5.12, 1.93, 1.61, 7.43, repro,
2006-02-07,1.42, 1.10, -6.09, 1.91, 1.60, 7.40, repro,
2006-02-08,0.82, -0.15, -8.25, 1.91, 1.60, 7.40, repro,
2006-02-09,0.69, -0.29, -1.26, 1.97, 1.61, 7.58, repro,
2006-02-10,0.69, 0.49, -4.31, 2.05, 1.62, 7.80, repro,
2006-02-11,1.11, -0.20, -6.73, 1.94, 1.61, 7.49, repro,
2006-02-12,0.38, 0.22, -10.36, 1.93, 1.61, 7.44, repro,
2006-02-13,0.61, 0.58, -3.36, 1.92, 1.60, 7.41, repro,
2006-02-14,0.07, 0.54, 2.08, 1.92, 1.60, 7.44, repro,
2006-02-15,0.47, -0.10, 4.40, 1.92, 1.61, 7.43, repro,
2006-02-16,1.66, 0.82, -2.56, 1.92, 1.61, 7.40, repro,
2006-02-17,0.79, 1.07, -4.53, 1.93, 1.61, 7.44, repro,
2006-02-18,-1.60, 0.96, -2.66, 1.92, 1.62, 7.43, repro,
2006-02-19,-0.70, -0.28, -0.81, 1.92, 1.62, 7.40, repro,
2006-02-20,0.71, 0.40, 3.13, 1.92, 1.62, 7.41, repro,
2006-02-21,1.09, 0.80, -0.15, 1.93, 1.62, 7.41, repro,
2006-02-22,1.45, 1.30, 5.88, 1.92, 1.62, 7.35, repro,
2006-02-23,0.39, 0.41, 3.70, 1.91, 1.62, 7.37, repro,
2006-02-24,-0.05, 1.37, -1.93, 1.92, 1.63, 7.42, repro,
2006-02-25,0.18, 1.23, -1.23, 1.90, 1.63, 7.34, repro,
2006-02-26,-0.25, 0.85, 1.00, 1.91, 1.62, 7.33, repro,
2006-02-27,0.58, -0.00, -0.41, 1.92, 1.65, 7.45, repro,
2006-02-28,0.07, 0.12, 9.50, 1.95, 1.65, 7.42, repro,
2006-03-01,0.43, 1.20, 8.15, 2.05, 1.78, 7.71, repro,
2006-03-02,0.67, 1.03, -3.36, 1.91, 1.62, 7.33, repro,
2006-03-03,0.42, 0.54, 0.57, 1.96, 1.63, 7.52, repro,
2006-03-04,0.45, 1.37, 4.82, 1.90, 1.65, 7.34, repro,
2006-03-05,0.29, 0.46, 1.86, 1.90, 1.64, 7.40, repro,
2006-03-06,0.44, 0.62, -7.57, 1.90, 1.64, 7.40, repro,
2006-03-07,0.91, 0.79, 0.43, 1.89, 1.62, 7.30, repro,
2006-03-08,-0.61, 1.77, 6.99, 1.89, 1.62, 7.34, repro,
2006-03-09,0.32, 0.32, 12.59, 1.90, 1.62, 7.31, repro,
2006-03-10,2.76, 1.41, 4.76, 1.90, 1.63, 7.34, repro,
2006-03-11,0.48, 0.93, 8.40, 1.94, 1.67, 7.49, repro,
2006-03-12,-1.60, 1.56, 4.09, 1.92, 1.66, 7.35, repro,
2006-03-13,-0.74, 1.49, 1.99, 1.93, 1.65, 7.38, repro,
2006-03-14,-0.50, 1.72, 3.96, 1.94, 1.65, 7.34, repro,
2006-03-15,-1.05, 0.93, -0.80, 1.93, 1.66, 7.38, repro,
2006-03-16,0.33, -0.56, -0.24, 2.00, 1.73, 7.68, repro,
2006-03-17,-0.82, -0.76, 3.76, 1.97, 1.68, 7.47, repro,
2006-03-18,-0.82, 2.11, 1.14, 1.93, 1.67, 7.43, repro,
2006-03-19,-0.50, -0.41, 3.50, 1.92, 1.66, 7.35, repro,
2006-03-20,-0.67, -0.59, 2.97, 1.92, 1.67, 7.38, repro,
2006-03-21,0.06, 0.15, 3.31, 1.93, 1.67, 7.42, repro,
2006-03-22,0.78, 0.48, -4.05, 1.92, 1.67, 7.38, repro,
2006-03-23,-0.02, -0.29, -0.95, 2.01, 1.74, 7.78, repro,
2006-03-24,0.14, 0.96, -0.93, 1.98, 1.70, 7.62, repro,
2006-03-25,0.69, 1.00, -0.23, 1.98, 1.68, 7.59, repro,
2006-03-26,0.14, 1.39, 3.17, 2.00, 1.70, 7.64, repro,
2006-03-27,0.01, -0.76, 5.68, 2.02, 1.75, 7.78, repro,
2006-03-28,0.72, -0.81, 5.70, 1.91, 1.66, 7.47, repro,
2006-03-29,-0.06, -1.76, -3.95, 1.90, 1.69, 7.56, repro,
2006-03-30,0.61, 0.29, 7.15, 1.87, 1.65, 7.35, repro,
2006-03-31,0.53, -0.45, 2.92, 1.88, 1.64, 7.34, repro,
2006-04-01,0.59, 0.54, 3.41, 1.87, 1.63, 7.32, repro,
2006-04-02,0.27, 0.88, 1.19, 1.90, 1.68, 7.53, repro,
2006-04-03,1.02, 1.35, 2.39, 1.89, 1.69, 7.53, repro,
2006-04-04,-0.46, -1.49, 10.90, 1.87, 1.64, 7.38, repro,
2006-04-05,0.26, -1.29, 3.17, 1.92, 1.71, 7.74, repro,
2006-04-06,0.41, 1.35, 2.87, 1.90, 1.68, 7.45, repro,
2006-04-07,0.62, 0.53, 2.56, 1.96, 1.70, 7.59, repro,
2006-04-08,1.24, 0.72, -1.23, 2.00, 1.67, 7.79, repro,
2006-04-09,1.02, -0.32, 6.64, 1.88, 1.64, 7.37, repro,
2006-04-10,0.08, -0.17, 7.99, 1.87, 1.64, 7.37, repro,
2006-04-11,1.13, -0.19, 7.79, 1.95, 1.66, 7.75, repro,
2006-04-12,0.68, -0.03, 2.78, 1.95, 1.65, 7.69, repro,
2006-04-13,0.93, 0.12, -0.01, 1.88, 1.61, 7.27, repro,
2006-04-14,-0.05, 1.51, 1.74, 1.96, 1.76, 7.75, repro,
2006-04-15,1.15, -0.27, 16.40, 1.93, 1.66, 7.56, repro,
2006-04-16,0.18, -0.23, 7.82, 1.87, 1.64, 7.36, repro,
2006-04-17,-0.15, -0.40, 7.30, 1.88, 1.64, 7.39, repro,
2006-04-18,0.81, -0.65, 2.61, 1.92, 1.69, 7.64, repro,
2006-04-19,1.24, -0.13, 4.71, 1.87, 1.62, 7.30, repro,
2006-04-20,0.60, 0.09, 6.54, 1.90, 1.67, 7.54, repro,
2006-04-21,-0.38, -0.33, 0.81, 1.88, 1.64, 7.39, repro,
2006-04-22,0.69, -0.85, 0.41, 1.88, 1.64, 7.37, repro,
2006-04-23,0.82, 0.37, 3.08, 1.92, 1.76, 7.71, repro,
2006-04-24,0.92, -0.27, 1.26, 1.90, 1.68, 7.50, repro,
2006-04-25,1.02, 0.41, 0.56, 1.92, 1.76, 7.69, repro,
2006-04-26,-0.12, 0.34, 2.50, 1.90, 1.68, 7.50, repro,
2006-04-27,-0.75, -1.34, 2.47, 1.95, 1.71, 7.65, repro,
2006-04-28,0.14, 0.89, 1.50, 1.93, 1.65, 7.42, repro,
2006-04-29,0.61, -0.79, 3.07, 1.89, 1.63, 7.37, repro,
2006-04-30,0.72, -1.07, 4.72, 1.89, 1.64, 7.43, repro,
2006-05-01,0.98, 0.19, -0.86, 1.88, 1.63, 7.37, repro,
2006-05-02,0.05, -0.20, 0.59, 1.88, 1.63, 7.35, repro,
2006-05-03,0.24, -1.26, 2.09, 1.89, 1.63, 7.36, repro,
2006-05-04,0.04, 0.16, 2.75, 1.89, 1.63, 7.40, repro,
2006-05-05,1.46, -0.90, 2.59, 1.89, 1.63, 7.40, repro,
2006-05-06,1.12, -0.43, 1.17, 1.88, 1.63, 7.39, repro,
2006-05-07,0.99, -1.22, 2.00, 1.89, 1.63, 7.41, repro,
2006-05-08,0.90, -0.48, 2.55, 1.88, 1.64, 7.40, repro,
2006-05-09,1.33, 0.09, 4.18, 1.96, 1.64, 7.60, repro,
2006-05-10,1.02, -0.16, 5.19, 1.88, 1.63, 7.38, repro,
2006-05-11,1.07, -0.09, 2.65, 1.87, 1.63, 7.37, repro,
2006-05-12,-0.23, -0.40, 5.80, 1.89, 1.63, 7.43, repro,
2006-05-13,0.52, -0.40, 5.21, 1.89, 1.63, 7.42, repro,
2006-05-14,0.70, -0.06, 6.78, 1.94, 1.65, 7.56, repro,
2006-05-15,0.91, 0.52, 3.58, 1.88, 1.62, 7.38, repro,
2006-05-16,0.18, 0.31, 2.15, 1.91, 1.67, 7.52, repro,
2006-05-17,0.13, 0.15, 6.53, 1.92, 1.67, 7.54, repro,
2006-05-18,-0.22, -1.91, 5.81, 1.93, 1.64, 7.55, repro,
2006-05-19,0.98, -0.40, 1.62, 2.01, 1.67, 7.80, repro,
2006-05-20,-0.26, -1.00, 7.42, 1.97, 1.64, 7.64, repro,
2006-05-21,-1.33, -1.62, 3.35, 2.05, 1.73, 8.04, repro,
2006-05-22,0.99, -1.79, 6.09, 1.99, 1.70, 7.78, repro,
2006-05-23,0.72, -0.86, 4.46, 1.96, 1.64, 7.61, repro,
2006-05-24,-1.06, -0.40, 6.77, 1.99, 1.67, 7.75, repro,
2006-05-25,-0.23, -0.43, 8.49, 2.07, 1.68, 7.99, repro,
2006-05-26,-0.95, -0.10, 5.69, 2.02, 1.65, 7.85, repro,
2006-05-27,0.77, -0.99, 11.86, 1.97, 1.65, 7.62, repro,
2006-05-28,0.77, -1.39, 11.27, 1.96, 1.65, 7.62, repro,
2006-05-29,0.21, -0.36, 6.07, 1.99, 1.68, 7.77, repro,
2006-05-30,0.34, -0.59, 1.92, 2.04, 1.71, 7.94, repro,
2006-05-31,-0.48, 0.40, 2.91, 2.02, 1.69, 7.78, repro,
2006-06-01,-0.73, -0.61, 4.77, 1.99, 1.68, 7.75, repro,
2006-06-02,0.36, -0.02, 3.02, 2.08, 1.74, 8.03, repro,
2006-06-03,-1.42, 0.65, 8.64, 2.03, 1.70, 7.82, repro,
2006-06-04,-0.70, 0.36, 7.15, 2.01, 1.68, 7.75, repro,
2006-06-05,-1.68, -0.70, 9.62, 2.03, 1.70, 7.82, repro,
2006-06-06,0.17, 0.37, 8.28, 2.00, 1.66, 7.65, repro,
2006-06-07,-0.31, -0.34, 14.09, 2.03, 1.70, 7.87, repro,
2006-06-08,0.56, 0.75, 3.20, 1.96, 1.66, 7.63, repro,
2006-06-09,-0.62, -0.05, 9.20, 2.03, 1.71, 7.91, repro,
2006-06-10,-0.23, 0.34, 7.32, 1.96, 1.66, 7.60, repro,
2006-06-11,-0.88, 0.66, 9.13, 1.99, 1.66, 7.71, repro,
2006-06-12,-0.33, 0.19, 6.92, 1.99, 1.67, 7.74, repro,
2006-06-13,0.32, 0.21, 7.76, 2.01, 1.67, 7.83, repro,
2006-06-14,0.79, 1.96, 2.58, 2.01, 1.70, 7.79, repro,
2006-06-15,0.17, -0.44, 13.29, 1.97, 1.68, 7.74, repro,
2006-06-16,1.94, -0.21, 10.85, 1.96, 1.64, 7.61, repro,
2006-06-17,-0.13, 1.03, 11.12, 1.96, 1.63, 7.58, repro,
2006-06-18,1.15, 1.34, 9.59, 1.97, 1.69, 7.83, repro,
2006-06-19,-0.19, 0.03, 10.81, 1.98, 1.68, 7.78, repro,
2006-06-20,1.27, 0.47, 10.70, 1.99, 1.68, 7.83, repro,
2006-06-21,0.45, 1.41, 12.66, 1.96, 1.67, 7.72, repro,
2006-06-22,-0.11, 2.45, 6.42, 2.02, 1.71, 7.92, repro,
2006-06-23,0.66, 1.23, 4.01, 2.02, 1.73, 8.00, repro,
2006-06-24,-0.59, 0.07, 9.38, 2.02, 1.74, 8.05, repro,
2006-06-25,-0.76, 1.80, 5.47, 2.03, 1.74, 8.02, repro,
2006-06-26,0.53, 0.61, 12.82, 2.09, 1.81, 8.13, repro,
2006-06-27,-0.14, 0.92, 11.38, 2.09, 1.81, 8.22, repro,
2006-06-28,-2.28, 0.12, 8.99, 2.05, 1.75, 8.16, repro,
2006-06-29,-0.38, 0.23, 10.04, 1.95, 1.71, 7.76, repro,
2006-06-30,-0.40, 0.07, 10.26, 2.00, 1.68, 7.84, repro,
2006-07-01,0.16, -0.76, 5.35, 1.98, 1.69, 7.80, repro,
2006-07-02,0.20, -0.02, 10.26, 2.00, 1.69, 7.83, repro,
2006-07-03,0.39, 0.86, 6.71, 1.97, 1.66, 7.81, repro,
2006-07-04,-0.27, -0.22, -1.11, 2.00, 1.70, 7.93, repro,
2006-07-05,0.04, 1.15, 5.04, 1.95, 1.64, 7.71, repro,
2006-07-06,-0.92, 2.99, -4.18, 1.99, 1.68, 7.82, repro,
2006-07-07,1.14, 0.79, -2.75, 1.95, 1.64, 7.68, repro,
2006-07-08,-0.09, -0.28, -4.02, 1.97, 1.64, 7.74, repro,
2006-07-09,1.16, -1.71, -2.30, 1.99, 1.68, 7.91, repro,
2006-07-10,-1.88, 0.13, 4.90, 1.97, 1.65, 7.75, repro,
2006-07-11,-1.22, 1.51, 5.16, 1.97, 1.65, 7.73, repro,
2006-07-12,0.96, 0.81, 13.82, 1.96, 1.64, 7.69, repro,
2006-07-13,0.37, -0.30, 6.30, 1.99, 1.65, 7.81, repro,
2006-07-14,0.49, 0.45, -1.68, 1.97, 1.65, 7.76, repro,
2006-07-15,-0.44, 0.21, 6.38, 1.96, 1.65, 7.69, repro,
2006-07-16,0.47, -0.50, 3.14, 1.97, 1.67, 7.85, repro,
2006-07-17,-1.82, -0.90, 3.43, 2.04, 1.76, 8.09, repro,
2006-07-18,0.15, 1.23, 7.38, 1.91, 1.65, 7.50, repro,
2006-07-19,1.10, 1.85, 3.61, 1.90, 1.64, 7.47, repro,
2006-07-20,-0.72, 2.25, 3.94, 1.90, 1.65, 7.46, repro,
2006-07-21,-1.52, 0.05, 1.51, 1.94, 1.75, 7.76, repro,
2006-07-22,-1.66, 3.88, 8.64, 1.90, 1.66, 7.53, repro,
2006-07-23,-1.53, 0.26, 13.18, 1.91, 1.65, 7.47, repro,
2006-07-24,1.80, 0.09, 7.56, 1.94, 1.70, 7.66, repro,
2006-07-25,-0.15, 3.02, 8.11, 1.90, 1.64, 7.41, repro,
2006-07-26,0.45, 1.69, 2.84, 1.93, 1.70, 7.52, repro,
2006-07-27,-1.09, 1.34, -1.11, 1.88, 1.64, 7.40, repro,
2006-07-28,-0.21, 1.84, 7.18, 1.94, 1.70, 7.50, repro,
2006-07-29,0.58, 1.99, -6.35, 2.30, 1.90, 8.89, repro,
2006-07-30,1.10, 1.73, 5.44, 1.93, 1.69, 7.50, repro,
2006-07-31,0.03, 0.93, 10.05, 1.90, 1.62, 7.39, repro,
2006-08-01,0.50, 0.65, 1.22, 1.93, 1.69, 7.48, repro,
2006-08-02,1.35, 1.00, 5.42, 1.94, 1.70, 7.79, repro,
2006-08-03,2.49, 2.76, 2.76, 1.97, 1.74, 7.85, repro,
2006-08-04,-0.60, 2.11, 1.94, 2.07, 1.83, 8.29, repro,
2006-08-05,0.76, 1.10, 3.95, 2.06, 1.89, 8.27, repro,
2006-08-06,1.66, 0.29, 0.82, 1.90, 1.67, 7.54, repro,
2006-08-07,-1.00, -0.29, 5.60, 1.91, 1.68, 7.63, repro,
2006-08-08,-1.35, 0.73, 16.33, 1.92, 1.65, 7.50, repro,
2006-08-09,0.50, 1.50, 7.20, 1.99, 1.77, 7.75, repro,
2006-08-10,0.82, 1.16, 4.54, 1.91, 1.65, 7.49, repro,
2006-08-11,1.26, -2.26, 10.79, 1.91, 1.64, 7.48, repro,
2006-08-12,1.68, -0.61, 9.58, 1.93, 1.70, 7.52, repro,
2006-08-13,0.89, -0.55, 6.87, 1.94, 1.70, 7.52, repro,
2006-08-14,0.69, -1.03, 15.14, 1.95, 1.71, 7.63, repro,
2006-08-15,0.30, -1.46, 3.52, 2.04, 1.74, 7.88, repro,
2006-08-16,1.28, -0.19, 8.55, 1.94, 1.70, 7.56, repro,
2006-08-17,0.11, -2.54, 4.10, 2.00, 1.73, 7.70, repro,
2006-08-18,1.47, 0.68, 6.48, 1.94, 1.74, 7.60, repro,
2006-08-19,1.21, -0.09, -0.27, 1.90, 1.63, 7.40, repro,
2006-08-20,0.28, 1.20, 7.20, 1.90, 1.64, 7.45, repro,
2006-08-21,0.16, 0.72, 7.34, 1.92, 1.68, 7.54, repro,
2006-08-22,0.20, -0.32, 12.48, 1.92, 1.66, 7.50, repro,
2006-08-23,1.04, 0.61, 3.15, 1.91, 1.65, 7.47, repro,
2006-08-24,1.49, -0.48, 12.11, 1.92, 1.66, 7.51, repro,
2006-08-25,1.19, 0.05, 13.69, 1.95, 1.70, 7.73, repro,
2006-08-26,-0.62, 1.32, 15.11, 1.96, 1.73, 7.83, repro,
2006-08-27,0.87, 1.02, 1.95, 1.96, 1.75, 7.87, repro,
2006-08-28,0.57, 0.41, 5.63, 1.95, 1.74, 7.82, repro,
2006-08-29,0.77, -0.29, 8.57, 2.06, 1.89, 8.31, repro,
2006-08-30,1.35, 0.56, -0.94, 2.05, 1.77, 8.13, repro,
2006-08-31,1.13, -0.33, 5.22, 1.97, 1.75, 7.95, repro,
2006-09-01,1.24, 0.61, 3.02, 2.01, 1.80, 8.12, repro,
2006-09-02,-0.22, 1.07, -6.14, 1.98, 1.80, 8.16, repro,
2006-09-03,0.28, 2.62, -2.17, 1.96, 1.75, 7.92, repro,
2006-09-04,1.99, 1.07, 6.45, 2.13, 1.86, 8.55, repro,
2006-09-05,0.27, 2.42, -6.13, 2.05, 1.86, 8.29, repro,
2006-09-06,0.55, 1.14, 2.06, 1.96, 1.75, 7.90, repro,
2006-09-07,0.46, -0.74, 9.76, 2.08, 1.91, 8.44, repro,
2006-09-08,0.42, 1.06, 0.36, 2.04, 1.90, 8.34, repro,
2006-09-09,2.53, 3.05, -2.18, 1.95, 1.73, 7.72, repro,
2006-09-10,1.20, 0.40, 2.77, 1.94, 1.74, 7.75, repro,
2006-09-11,2.32, 2.76, 2.18, 1.92, 1.70, 7.60, repro,
2006-09-12,0.08, 2.74, -1.37, 1.92, 1.71, 7.59, repro,
2006-09-13,0.95, 1.52, 5.14, 1.93, 1.70, 7.61, repro,
2006-09-14,-0.19, 1.82, 5.15, 2.04, 1.79, 8.01, repro,
2006-09-15,2.85, -0.62, 0.61, 1.98, 1.68, 7.76, repro,
2006-09-16,1.18, 1.97, 7.07, 1.91, 1.66, 7.51, repro,
2006-09-17,1.08, 1.38, 5.67, 1.90, 1.67, 7.50, repro,
2006-09-18,1.65, 1.68, 5.22, 1.89, 1.65, 7.43, repro,
2006-09-19,1.51, 0.54, 8.01, 1.92, 1.65, 7.49, repro,
2006-09-20,1.75, 2.17, 7.03, 1.90, 1.66, 7.46, repro,
2006-09-21,1.58, 0.42, 6.38, 1.94, 1.71, 7.67, repro,
2006-09-22,1.74, 1.13, 5.54, 2.01, 1.77, 7.98, repro,
2006-09-23,2.21, 1.70, 3.76, 1.98, 1.70, 7.72, repro,
2006-09-24,2.17, 1.52, 4.56, 2.06, 1.72, 8.07, repro,
2006-09-25,1.24, 1.91, 5.50, 2.06, 1.77, 8.15, repro,
2006-09-26,1.49, 1.17, 0.51, 2.05, 1.81, 7.95, repro,
2006-09-27,1.96, 2.16, -2.73, 2.08, 1.85, 8.18, repro,
2006-09-28,1.68, -0.00, 2.72, 2.01, 1.81, 8.11, repro,
2006-09-29,0.91, 0.48, 8.41, 2.01, 1.81, 8.07, repro,
2006-09-30,1.37, 0.19, 7.88, 1.96, 1.71, 7.68, repro,
2006-10-01,2.37, 2.15, 5.48, 1.95, 1.68, 7.58, repro,
2006-10-02,0.87, 2.04, 4.98, 2.01, 1.77, 7.82, repro,
2006-10-03,0.75, -0.48, -2.10, 2.05, 1.83, 7.99, repro,
2006-10-04,1.60, 0.73, 3.88, 1.99, 1.74, 7.84, repro,
2006-10-05,0.19, 2.41, 8.17, 2.01, 1.71, 7.96, repro,
2006-10-06,2.17, -0.38, 8.26, 1.99, 1.71, 7.92, repro,
2006-10-07,2.29, 0.01, -5.62, 2.03, 1.77, 8.13, repro,
2006-10-08,1.22, 0.68, -5.35, 2.01, 1.76, 8.05, repro,
2006-10-09,0.87, 0.10, -1.78, 2.15, 1.91, 8.74, repro,
2006-10-10,0.60, 1.16, -1.41, 1.96, 1.72, 7.79, repro,
2006-10-11,1.52, -0.28, -1.60, 1.97, 1.77, 7.88, repro,
2006-10-12,1.22, -0.41, 8.51, 1.97, 1.71, 7.73, repro,
2006-10-13,1.61, 0.18, 6.71, 2.01, 1.71, 7.97, repro,
2006-10-14,1.67, -0.17, 1.46, 1.97, 1.80, 7.86, repro,
2006-10-15,1.01, -0.49, 15.43, 1.91, 1.73, 7.69, repro,
2006-10-16,1.41, 0.53, 16.66, 1.95, 1.73, 7.76, repro,
2006-10-17,0.79, 0.98, 10.13, 1.98, 1.77, 7.89, repro,
2006-10-18,2.60, 2.86, 5.32, 1.96, 1.74, 7.94, repro,
2006-10-19,1.58, 0.61, 1.72, 2.11, 1.80, 8.50, repro,
2006-10-20,1.54, 0.08, 5.35, 2.25, 2.02, 9.80, repro,
2006-10-21,0.95, -0.90, 9.31, 2.09, 1.82, 8.65, repro,
2006-10-22,1.08, -0.31, 4.74, 1.91, 1.76, 7.75, repro,
2006-10-23,1.36, 1.44, -1.53, 2.07, 1.92, 8.53, repro,
2006-10-24,0.42, 1.65, 1.54, 1.97, 1.79, 8.01, repro,
2006-10-25,0.44, -0.07, 5.45, 1.99, 1.79, 7.85, repro,
2006-10-26,1.92, 1.24, 6.96, 1.94, 1.77, 7.71, repro,
2006-10-27,1.68, 1.11, -2.17, 1.90, 1.79, 7.80, repro,
2006-10-28,0.62, 0.16, 2.16, 2.07, 1.82, 8.54, repro,
2006-10-29,0.33, 1.52, 0.75, 1.91, 1.76, 7.71, repro,
2006-10-30,1.03, 0.98, 3.04, 1.86, 1.67, 7.43, repro,
2006-10-31,0.83, 0.17, 4.74, 1.89, 1.71, 7.53, repro,
2006-11-01,1.28, 0.73, 4.19, 1.98, 1.86, 8.07, repro,
2006-11-02,1.33, 2.62, 1.42, 1.89, 1.71, 7.51, repro,
2006-11-03,0.76, 1.42, 2.27, 1.90, 1.75, 7.63, repro,
2006-11-04,1.41, -0.09, -0.81, 1.93, 1.76, 7.77, repro,
2006-11-05,1.59, 1.27, 1.96, 1.97, 1.80, 7.94, repro,
2006-11-06,1.42, 0.53, 0.08, 1.86, 1.68, 7.45, repro,
2006-11-07,1.78, 1.56, 2.17, 1.98, 1.83, 8.13, repro,
2006-11-08,1.21, 1.17, 9.56, 1.96, 1.77, 7.88, repro,
2006-11-09,1.91, 1.70, 0.27, 1.97, 1.82, 8.06, repro,
2006-11-10,0.41, 0.71, 6.72, 1.93, 1.69, 7.67, repro,
2006-11-11,0.11, 0.38, 2.57, 2.03, 1.86, 8.26, repro,
2006-11-12,1.28, -0.45, 3.61, 1.98, 1.82, 8.09, repro,
2006-11-13,1.79, 1.76, 2.22, 1.94, 1.73, 7.78, repro,
2006-11-14,1.04, 1.31, 4.05, 1.86, 1.67, 7.47, repro,
2006-11-15,0.95, 2.40, 3.86, 1.85, 1.66, 7.40, repro,
2006-11-16,0.72, 0.77, 5.25, 1.86, 1.66, 7.44, repro,
2006-11-17,0.95, 0.72, 3.34, 1.85, 1.66, 7.41, repro,
2006-11-18,0.53, 0.92, -1.27, 1.86, 1.65, 7.35, repro,
2006-11-19,1.24, 0.88, -6.62, 1.84, 1.65, 7.34, repro,
2006-11-20,0.06, 1.87, -2.04, 1.85, 1.65, 7.36, repro,
2006-11-21,0.89, 1.49, 3.28, 1.85, 1.65, 7.34, repro,
2006-11-22,0.07, 1.33, 0.69, 1.86, 1.65, 7.38, repro,
2006-11-23,1.15, 1.73, -0.33, 1.88, 1.69, 7.53, repro,
2006-11-24,1.71, 1.46, 3.24, 1.93, 1.73, 7.70, repro,
2006-11-25,1.31, 1.20, 3.53, 1.88, 1.67, 7.47, repro,
2006-11-26,0.56, 2.71, 0.28, 1.94, 1.70, 7.64, repro,
2006-11-27,1.22, 0.69, 1.52, 1.90, 1.68, 7.58, repro,
2006-11-28,-0.04, 1.16, 2.18, 1.92, 1.71, 7.53, repro,
2006-11-29,-0.82, 0.83, 4.01, 1.86, 1.66, 7.38, repro,
2006-11-30,3.07, 1.15, -7.29, 1.84, 1.66, 7.35, repro,
2006-12-01,0.61, 2.17, -5.41, 1.85, 1.66, 7.39, repro,
2006-12-02,-0.12, 0.86, -4.91, 1.86, 1.66, 7.38, repro,
2006-12-03,0.63, 1.29, -5.62, 1.86, 1.65, 7.38, repro,
2006-12-04,1.18, 0.49, -6.23, 1.97, 1.69, 7.72, repro,
2006-12-05,1.26, 0.73, -1.67, 1.94, 1.80, 7.73, repro,
2006-12-06,1.69, 0.76, -2.19, 2.01, 1.84, 8.16, repro,
2006-12-07,1.32, 0.58, -2.49, 1.93, 1.79, 7.70, repro,
2006-12-08,1.78, 0.66, -0.03, 1.90, 1.73, 7.54, repro,
2006-12-09,0.15, 0.51, -0.67, 2.07, 1.85, 8.16, repro,
2006-12-10,1.98, -0.12, 4.15, 1.94, 1.76, 7.73, repro,
2006-12-11,1.74, -0.42, -4.48, 1.85, 1.68, 7.40, repro,
2006-12-12,2.06, 1.19, -4.41, 1.98, 1.77, 7.94, repro,
2006-12-13,1.59, 1.10, -0.32, 1.88, 1.73, 7.53, repro,
2006-12-14,2.02, 0.69, 5.23, 1.90, 1.73, 7.56, repro,
2006-12-15,1.09, 0.15, 1.32, 2.11, 1.92, 8.25, repro,
2006-12-16,0.15, 0.97, 6.42, 1.94, 1.76, 7.67, repro,
2006-12-17,0.92, -0.27, 0.37, 2.03, 1.89, 8.18, repro,
2006-12-18,1.17, 0.12, 5.60, 2.08, 1.90, 8.65, repro,
2006-12-19,2.95, 1.18, -3.18, 2.04, 1.91, 8.30, repro,
2006-12-20,1.06, -0.02, 1.25, 2.09, 1.96, 8.54, repro,